Regional Weather Roundup
Issued by NWS

Home | Current Version | Previous Version | Graphics & Text | Print | Product List | Glossary On
Versions: 1 2 3 4 5 6 7 8 9 10 11 12 13 14 15 16 17 18 19 20 21 22 23 24 25 26 27 28 29 30 31 32 33 34 35 36 37 38 39 40 41 42 43 44 45 46 47 48 49 50
945
ASUS44 KMEG 071310
RWRTN
TENNESSEE HOURLY STATE WEATHER ROUNDUP
NATIONAL WEATHER SERVICE MEMPHIS TN
700 AM CST SUN FEB 07 2016

TNZ002-004-019-021-049-052-054-088>092-071400-
WEST TENNESSEE

CITY           SKY/WX    TMP DP  RH WIND       PRES   REMARKS
MEMPHIS INTL   PTCLDY    32  23  69 CALM      30.23F
NWS MEMPHIS      N/A     29 N/A N/A MISG        N/A
JACKSON        CLEAR     22  20  92 CALM      30.23S
DYERSBURG      CLEAR     36  23  60 SW3       30.22F
UNION CITY     CLEAR     28  25  86 S5        30.18F WCI  23
PARIS          CLEAR     28  19  69 SW6       30.20S WCI  22
LEXINGTON      CLEAR     21  19  93 CALM      30.22S
$$

TNZ008-025-027-028-033-062-065-066-071400-
NORTH MIDDLE TENNESSEE

CITY           SKY/WX    TMP DP  RH WIND       PRES   REMARKS
NASHVILLE      PTCLDY    28  22  78 S3        30.22R
CLARKSVILLE    CLEAR     24  22  91 SE5       30.20S WCI  18
SMYRNA         CLEAR     24  23  96 CALM      30.25R
COOKEVILLE     CLEAR     21  19  93 CALM      30.21R
CROSSVILLE     CLEAR     28  19  69 W5        30.18S WCI  23
$$

TNZ061-075-076-078-094-096-097-071400-
SOUTH MIDDLE TENNESSEE

CITY           SKY/WX    TMP DP  RH WIND       PRES   REMARKS
FAYETTEVILLE   CLEAR     28  25  86 SE3       30.22R
TULLAHOMA      CLEAR     23  21  93 CALM      30.22S
WINCHESTER     CLEAR     23  21  93 CALM      30.23S
MCMINNVILLE    CLEAR     23  23 100 CALM      30.21S
COLUMBIA       CLEAR     25  25 100 CALM      30.21R
SHELBYVILLE    CLEAR     25  25 100 E5        30.24R WCI  19
$$

TNZ017-018-042-046-047-071400-
NORTHEAST TENNESSEE

CITY           SKY/WX    TMP DP  RH WIND       PRES   REMARKS
TRI CITIES     PTCLDY    22  19  89 CALM      30.16S
$$

TNZ012-013-036-069-073-074-071400-
CENTRAL EAST TENNESSEE

CITY           SKY/WX    TMP DP  RH WIND       PRES   REMARKS
KNOXVILLE      PTCLDY    27  22  81 CALM      30.19R
OAK RIDGE      CLEAR     27  24  89 CALM      30.22R
GATLINBURG       N/A     19  18  93 CALM      30.18S
MORRISTOWN     SUNNY     27  21  80 CALM      30.16S
$$

TNZ083-085-099-071400-
SOUTHEAST TENNESSEE

CITY           SKY/WX    TMP DP  RH WIND       PRES   REMARKS
CHATTANOOGA    CLEAR     27  24  89 CALM      30.22S
$$

SKY/WX REPORTED AS FAIR MEANS FEW OR NO CLOUDS BELOW
12 THOUSAND FEET.





USA.gov is the U.S. government's official web portal to all federal, state and local government web resources and services.